Flag Weather past 2 weeks in Remscheid, North Rhine-Westphalia, Germany

Now
64 °F

Sunny.


Feels Like: 64 °F
Forecast: 53 / 64 °F
Wind: 9 mph from South

Location: Duesseldorf

Current Time: Oct 31, 2014 at 5:01:46 PM

Latest Report: Oct 31, 2014 at 4:20 PM


Visibility: 10 mi

Pressure: 30.18 "Hg

Humidity: 68%

Dew point: 54 °F

Location of RemscheidLocation

Historic Weather in Remscheid — Graph

°F

Remscheid temperature yesterday

Maximum temperature yesterday: 61 °F (at 2:20 PM)
Minimum temperature yesterday: 52 °F (at 12:20 AM)
Average temperature yesterday: 56 °F

Past Weeks' High & Low Weather Summary

 TemperatureHumidityPressure
High75 °F (Oct 19, 2:20 PM)100% (Oct 25, 9:20 AM)30.27 "Hg (Oct 25, 9:20 AM)
Low43 °F (Oct 28, 9:20 PM)57% (Oct 19, 2:20 PM)29.50 "Hg (Oct 21, 3:20 PM)
Average55 °F83%30.07 "Hg
* Reported Oct 16 4:20 PM — Oct 31 3:50 PM, Remscheid, Weather by CustomWeather, © 2014

Note: Actual official high and low records may vary slightly from our data, if they occured in-between our weather recording intervals... More about our weather records

Advertising

Remscheid weather history for previous 24 hours

 ConditionsComfort  
Time TempWeatherWind HumidityBarometerVisibility
3:50 PM
Oct 31
64 °FSunny.9 mph68%30.18 "Hg10 mi
3:20 PM64 °FSunny.9 mph68%30.18 "Hg10 mi
2:50 PM64 °FSunny.12 mph68%30.18 "Hg10 mi
2:20 PM66 °FSunny.14 mph64%30.18 "Hg10 mi
1:50 PM66 °FSunny.12 mph64%30.18 "Hg10 mi
1:20 PM64 °FSunny.10 mph68%30.18 "Hg10 mi
12:50 PM64 °FSunny.14 mph68%30.21 "Hg10 mi
12:20 PM64 °FSunny.10 mph68%30.21 "Hg10 mi
11:50 AM64 °FSunny.12 mph68%30.21 "Hg10 mi
11:20 AM63 °FSunny.12 mph68%30.21 "Hg10 mi
10:50 AM63 °FSunny.12 mph73%30.21 "Hg10 mi
10:20 AM61 °FSunny.13 mph77%30.21 "Hg10 mi
9:50 AM59 °FSunny.12 mph77%30.21 "Hg10 mi
9:20 AM57 °FSunny.13 mph82%30.21 "Hg10 mi
8:50 AM57 °FSunny.15 mph82%30.21 "Hg10 mi
8:20 AM57 °FSunny.15 mph82%30.21 "Hg10 mi
7:50 AM55 °FSunny.14 mph88%30.21 "Hg10 mi
7:20 AM55 °FClear.14 mph88%30.18 "Hg10 mi
6:50 AM55 °FClear.14 mph88%30.18 "Hg10 mi
6:20 AM55 °FClear.13 mph88%30.18 "Hg10 mi
5:50 AM55 °FClear.14 mph88%30.18 "Hg10 mi
5:20 AM55 °FClear.12 mph88%30.18 "Hg10 mi
4:50 AM55 °FClear.10 mph88%30.21 "Hg10 mi
4:20 AM55 °FClear.10 mph88%30.21 "Hg10 mi
3:50 AM55 °FClear.12 mph88%30.21 "Hg10 mi
3:20 AM55 °FClear.14 mph88%30.18 "Hg10 mi
2:50 AM55 °FClear.14 mph88%30.21 "Hg10 mi
2:20 AM55 °FClear.12 mph88%30.21 "Hg10 mi
1:50 AM57 °FClear.12 mph82%30.21 "Hg10 mi
1:20 AM57 °FClear.15 mph82%30.21 "Hg10 mi
12:50 AM57 °FClear.13 mph82%30.21 "Hg10 mi
12:20 AM57 °FClear.14 mph82%30.21 "Hg10 mi
11:50 PM
Oct 30
57 °FClear.13 mph82%30.21 "Hg10 mi
11:20 PM57 °FClear.14 mph82%30.21 "Hg10 mi
10:50 PM57 °FClear.14 mph88%30.21 "Hg10 mi
10:20 PM57 °FClear.14 mph88%30.21 "Hg10 mi
9:50 PM57 °FClear.14 mph88%30.21 "Hg10 mi
9:20 PM57 °FClear.13 mph88%30.21 "Hg10 mi
8:50 PM57 °FClear.12 mph88%30.21 "Hg10 mi
8:20 PM57 °FClear.12 mph88%30.21 "Hg10 mi
7:50 PM59 °FClear.12 mph82%30.21 "Hg10 mi
7:20 PM59 °FClear.10 mph82%30.21 "Hg10 mi
6:50 PM59 °FClear.9 mph88%30.21 "Hg10 mi
6:20 PM59 °FClear.9 mph88%30.21 "Hg10 mi
5:50 PM59 °FClear.8 mph88%30.21 "Hg10 mi
5:20 PM59 °FClear.9 mph88%30.18 "Hg10 mi
Weather by CustomWeather, © 2014

See weather overviewHow to use our weather pages